15min,AgWx,evansfrm,411,23NOV2017:00:00:00,38.9,12.94,37.5,37.6,37.7,38.7,37.0,100,100,100,0.764,37.7,38.7,37.0,0,0.7,145,55,2.4,-0.00022,-0.00032,45.0,44.6,27,0,0,41.1,13.61,0.00,0.00
15min,AgWx,evansfrm,411,23NOV2017:00:15:00,38.6,12.94,37.6,37.6,37.6,37.9,37.3,100,100,100,0.762,37.6,37.9,37.3,0,0.4,259,43,2.3,-0.00023,-0.00035,44.9,44.4,27,0,0,42.3,13.61,0.00,0.00
15min,AgWx,evansfrm,411,23NOV2017:00:30:00,38.5,12.93,38.3,38.3,37.7,38.3,37.3,100,100,100,0.785,37.7,38.3,37.3,3.902,3.1,153,22,4.3,-0.00016,-0.00019,44.8,44.2,27,0,0,41.7,13.61,0.00,0.00
15min,AgWx,evansfrm,411,23NOV2017:00:45:00,38.4,12.93,39.3,39.4,38.9,40.3,38.1,100,100,100,0.819,38.9,40.3,38.1,1.995,2.8,115,12,4.1,-0.00016,-0.00021,44.6,44.2,27,0,0,41.6,13.61,0.00,0.00
15min,AgWx,evansfrm,411,23NOV2017:01:00:00,38.2,12.93,37.4,37.1,38.5,39.2,37.1,100,100,100,0.750,38.5,39.2,37.1,0,0.4,126,31,1.9,-0.00023,-0.00035,44.5,44.1,27,0,0,41.5,13.61,0.00,0.00
15min,AgWx,evansfrm,411,23NOV2017:01:15:00,37.8,12.92,37.6,37.6,37.5,38.2,36.7,100,100,100,0.762,37.5,38.2,36.7,1.096,2.3,160,18,3.9,-0.00017,-0.00022,44.4,44.4,27,0,0,40.7,13.61,0.00,0.00
15min,AgWx,evansfrm,411,23NOV2017:01:30:00,37.5,12.91,37.3,37.3,37.0,38.1,36.0,100,100,100,0.753,37.0,38.1,36.0,2.653,1.8,57,55,3.9,-0.00018,-0.00024,44.2,44.2,27,0,0,40.2,13.61,0.00,0.00
15min,AgWx,evansfrm,411,23NOV2017:01:45:00,37.1,12.91,36.1,36.1,36.5,37.3,35.9,100,100,100,0.720,36.5,37.3,35.9,0,0.7,16,49,3.4,-0.00021,-0.00031,44.2,44.2,27,0,0,39.9,13.61,0.00,0.00
15min,AgWx,evansfrm,411,23NOV2017:02:00:00,36.8,12.9,35.7,35.4,36.1,36.5,35.4,100,100,100,0.699,36.1,36.5,35.4,2.302,1.0,42,58,2.6,-0.00020,-0.00029,44.1,44.1,27,0,0,39.9,13.61,0.00,0.00
15min,AgWx,evansfrm,411,23NOV2017:02:15:00,36.4,12.84,34.6,34.3,35.2,35.9,34.2,100,100,100,0.669,35.2,35.9,34.2,0,0.9,176,27,4.0,-0.00020,-0.00029,43.9,44.1,27,0,0,38.8,13.61,0.00,0.00
15min,AgWx,evansfrm,411,23NOV2017:02:30:00,35.9,12.9,34.9,34.7,35.3,35.9,34.2,100,100,100,0.681,35.3,35.9,34.2,1.929,0.4,113,5.8,2.8,-0.00022,-0.00034,43.8,43.9,27,0,0,38.8,13.61,0.00,0.00
15min,AgWx,evansfrm,411,23NOV2017:02:45:00,35.6,12.89,34.8,35.0,34.8,35.6,33.8,100,100,100,0.689,34.8,35.6,33.8,0,0.8,117,17,2.9,-0.00020,-0.00029,43.7,43.9,27,0,0,38.9,13.61,0.00,0.00
15min,AgWx,evansfrm,411,23NOV2017:03:00:00,35.2,12.89,34.7,34.6,34.5,35.3,33.7,100,100,100,0.677,34.5,35.3,33.7,4.187,1.5,194,16,4.7,-0.00018,-0.00025,43.6,43.7,27,0,0,38.4,13.61,0.00,0.00
15min,AgWx,evansfrm,411,23NOV2017:03:15:00,35.1,12.89,35.9,35.9,35.0,36.0,34.2,100,100,100,0.713,35.0,36.0,34.2,4.187,2.5,115,39,4.5,-0.00016,-0.00020,43.5,43.7,27,0,0,38.2,13.61,0.00,0.00
15min,AgWx,evansfrm,411,23NOV2017:03:30:00,35.2,12.88,35.6,35.4,36.3,37.1,35.4,100,100,100,0.701,36.3,37.1,35.4,1.535,1.6,120,53,4.0,-0.00018,-0.00025,43.4,43.7,27,0,0,40.0,13.61,0.00,0.00
15min,AgWx,evansfrm,411,23NOV2017:03:45:00,35.1,12.88,35.7,35.7,35.7,37.1,35.1,100,100,100,0.709,35.7,37.1,35.1,2.28,1.3,163,34,2.6,-0.00019,-0.00027,43.3,43.5,27,0,0,39.0,13.61,0.00,0.00
15min,AgWx,evansfrm,411,23NOV2017:04:00:00,34.8,12.87,34.8,34.8,34.5,35.7,34.0,100,100,100,0.684,34.5,35.7,34.0,2.894,1.4,197,58,4.4,-0.00018,-0.00025,43.1,43.5,27,0,0,38.1,13.61,0.00,0.00
15min,AgWx,evansfrm,411,23NOV2017:04:15:00,34.6,12.87,33.6,33.7,34.1,35.2,33.4,100,100,100,0.653,34.1,35.2,33.4,1.622,0.6,90,44,2.6,-0.00021,-0.00030,42.9,43.5,27,0,0,37.5,13.61,0.00,0.00
15min,AgWx,evansfrm,411,23NOV2017:04:30:00,34.2,12.86,32.5,32.3,33.3,34.8,32.2,100,100,100,0.618,33.3,34.8,32.2,1.973,1.3,133,63,3.6,-0.00018,-0.00025,42.9,43.5,27,0,0,37.3,13.61,0.00,0.00
15min,AgWx,evansfrm,411,23NOV2017:04:45:00,33.9,12.86,34.1,34.1,33.0,34.1,32.1,100,100,100,0.664,33.0,34.1,32.1,0.46,1.0,141,20,2.7,-0.00019,-0.00027,42.7,43.3,27,0,0,36.5,13.61,0.00,0.00
15min,AgWx,evansfrm,411,23NOV2017:05:00:00,33.7,12.86,34.3,34.0,34.0,34.7,33.4,100,100,100,0.663,34.0,34.7,33.4,2.872,1.4,46,24,4.1,-0.00018,-0.00025,42.7,43.7,27,0,0,37.6,13.61,0.00,0.00
15min,AgWx,evansfrm,411,23NOV2017:05:15:00,33.7,12.86,33.9,33.9,33.8,34.8,32.5,100,100,100,0.658,33.8,34.8,32.5,0,1.6,357,68,4.3,-0.00017,-0.00023,42.6,43.3,27,0,0,37.4,13.61,0.00,0.00
15min,AgWx,evansfrm,411,23NOV2017:05:30:00,33.6,12.85,33.2,32.9,33.2,33.9,32.6,100,100,100,0.633,33.2,33.9,32.6,0,1.4,117,74,3.8,-0.00018,-0.00024,42.5,43.2,27,0,0,37.0,13.61,0.00,0.00
15min,AgWx,evansfrm,411,23NOV2017:05:45:00,33.4,12.84,33.2,33.1,33.4,34.2,32.8,100,100,100,0.639,33.4,34.2,32.8,0.899,0.9,158,58,3.9,-0.00020,-0.00028,42.3,43.2,27,0,0,37.3,13.61,0.00,0.00
15min,AgWx,evansfrm,411,23NOV2017:06:00:00,33.2,12.84,32.7,32.7,32.5,33.3,31.9,100,100,100,0.627,32.5,33.3,31.9,3.201,2.3,82,76,4.6,-0.00015,-0.00020,42.3,43.0,27,0,0,36.3,13.61,0.00,0.00
15min,AgWx,evansfrm,411,23NOV2017:06:15:00,33.1,12.83,33.1,32.8,33.2,33.6,32.7,100,100,100,0.631,33.2,33.6,32.7,0,0.9,106,63,3.1,-0.00020,-0.00028,42.2,43.0,27,0,0,36.4,13.61,0.00,0.00
15min,AgWx,evansfrm,411,23NOV2017:06:30:00,32.8,12.83,32.4,32.3,32.5,32.8,32.2,100,100,100,0.618,32.5,32.8,32.2,3.003,0.6,192,15,3.3,-0.00021,-0.00031,42.1,43.0,27,0,0,36.4,13.61,0.00,0.00
15min,AgWx,evansfrm,411,23NOV2017:06:45:00,32.6,12.83,32.1,32.1,31.9,32.3,31.6,100,100,100,0.613,31.9,32.3,31.6,1.359,1.6,145,53,4.0,-0.00017,-0.00022,41.9,43.0,27,0,0,35.5,13.61,0.00,0.00
15min,AgWx,evansfrm,411,23NOV2017:07:00:00,32.6,12.82,33.1,32.7,32.8,33.3,32.0,100,100,100,0.628,32.8,33.3,32.0,0.438,0.7,164,19,2.0,-0.00020,-0.00029,41.9,42.8,27,0,0,37.3,13.61,0.00,0.00
15min,AgWx,evansfrm,411,23NOV2017:07:15:00,32.7,12.81,33.1,33.1,32.8,33.2,32.3,100,100,100,0.639,32.8,33.2,32.3,0,2.3,145,14,3.9,-0.00015,-0.00019,41.8,42.8,27,0,0,36.8,13.61,0.00,0.00
15min,AgWx,evansfrm,411,23NOV2017:07:30:00,32.6,12.81,32.9,32.8,33.2,33.8,32.8,100,100,100,0.631,33.2,33.8,32.8,1.798,1.7,278,69,3.3,-0.00017,-0.00022,41.6,42.8,27,2,0,36.5,13.61,0.00,0.00
15min,AgWx,evansfrm,411,23NOV2017:07:45:00,32.6,12.81,32.8,32.7,32.8,33.1,32.5,100,100,100,0.628,32.8,33.1,32.5,0,0.7,34,14,3.0,-0.00016,-0.00017,41.6,42.6,27,8,0,36.9,13.61,0.00,0.00
15min,AgWx,evansfrm,411,23NOV2017:08:00:00,32.7,12.82,33.0,33.1,32.9,33.2,32.7,100,100,100,0.638,32.9,33.2,32.6,0.986,0.8,0.3,56,3.0,-0.00012,-0.00012,41.6,42.4,27,18,0,37.9,13.61,0.00,0.00
15min,AgWx,evansfrm,411,23NOV2017:08:15:00,32.8,12.84,33.2,33.1,33.3,33.8,33.0,100,100,100,0.639,33.3,33.8,33.0,0,0.7,305,22,2.5,0.00001,0.00001,41.4,42.3,27,26,0,38.2,13.61,0.00,0.00
15min,AgWx,evansfrm,411,23NOV2017:08:30:00,33.2,13.12,34.5,34.4,33.4,34.4,33.0,100,100,100,0.671,33.4,34.4,33.0,3.025,3.2,167,19,5.7,0.00004,0.00004,41.3,42.4,27,67,0,38.6,13.61,0.00,0.00
15min,AgWx,evansfrm,411,23NOV2017:08:45:00,34.7,13.45,37.1,36.8,35.7,36.9,34.4,100,100,100,0.740,35.7,36.9,34.4,1.25,2.5,149,20,4.6,0.00020,0.00021,41.3,42.6,27,142,0,43.2,13.60,0.00,0.00
15min,AgWx,evansfrm,411,23NOV2017:09:00:00,36.0,13.7,39.5,39.5,37.8,39.5,36.8,100,100,100,0.821,37.8,39.5,36.8,2.981,2.4,162,17,4.0,0.00032,0.00034,41.3,42.3,27,164,0,46.1,13.60,0.00,0.00
15min,AgWx,evansfrm,411,23NOV2017:09:15:00,38.1,13.74,42.5,42.3,41.0,42.3,39.4,100,100,100,0.915,41.0,42.3,39.4,1.381,2.5,133,19,4.1,0.00049,0.00052,41.1,42.3,27,192,0,49.3,13.60,0.00,0.00
15min,AgWx,evansfrm,411,23NOV2017:09:30:00,40.4,13.95,43.4,42.9,43.0,43.6,42.1,98,100,96,0.919,42.4,43.0,41.9,1.578,1.2,38,52,3.7,0.00060,0.00064,41.2,42.1,27,179,0,51.8,13.60,0.00,0.00
15min,AgWx,evansfrm,411,23NOV2017:09:45:00,43.3,14.71,46.0,44.6,43.6,44.6,42.9,97,100,93,0.960,42.9,43.9,42.2,1.82,1.6,319,36,4.9,0.00082,0.00088,41.2,42.4,27,239,0,52.9,13.60,0.00,0.00
15min,AgWx,evansfrm,411,23NOV2017:10:00:00,47.2,14.64,47.9,46.4,45.6,46.4,44.5,88,97,84,0.906,42.3,44.2,41.3,1.71,1.9,269,20,4.0,0.00114,0.00124,41.2,42.1,27,306,0,57.1,13.60,0.00,0.00
15min,AgWx,evansfrm,411,23NOV2017:10:15:00,51.3,14.54,49.7,48.8,47.6,48.8,46.4,83,88,79,0.963,42.7,43.6,41.5,1.403,1.4,187,31,3.8,0.00145,0.00159,41.2,42.1,27,354,0,60.5,13.60,0.00,0.00
15min,AgWx,evansfrm,411,23NOV2017:10:30:00,54.9,14.55,51.4,48.9,49.1,49.7,48.5,79,83,78,0.924,43.0,44.2,42.3,2.806,2.2,268,57,5.1,0.00151,0.00168,41.1,41.9,27,355,0,60.7,13.60,0.00,0.00
15min,AgWx,evansfrm,411,23NOV2017:10:45:00,57.7,14.51,51.8,49.5,49.1,49.5,48.7,79,82,77,0.953,42.8,43.9,42.1,1.666,2.5,317,24,4.8,0.00173,0.00193,41.4,41.9,27,400,0,59.7,13.60,0.00,0.00
15min,AgWx,evansfrm,411,23NOV2017:11:00:00,60.5,14.44,52.7,51.0,50.5,51.4,49.4,77,80,74,0.971,43.5,45.1,42.3,3.617,2.2,346,46,4.7,0.00200,0.00221,41.5,42.1,27,439,0,62.1,13.60,0.00,0.00
15min,AgWx,evansfrm,411,23NOV2017:11:15:00,62.6,14.43,52.1,51.5,51.1,51.8,50.3,75,81,72,0.956,43.7,45.3,42.7,1.513,3.5,347,24,6.4,0.00214,0.00242,41.6,41.9,27,465,0,60.8,13.60,0.00,0.00
15min,AgWx,evansfrm,411,23NOV2017:11:30:00,64.4,14.37,53.7,53.2,52.5,53.6,51.6,73,76,71,1.005,44.1,45.2,43.3,3.836,3.3,360,20,5.7,0.00232,0.00262,41.8,42.1,27,484,0,62.1,13.60,0.00,0.00
15min,AgWx,evansfrm,411,23NOV2017:11:45:00,66.2,14.34,57.0,55.7,54.8,55.8,53.3,70,75,66,1.039,45.0,46.0,44.0,1.863,3.0,1.3,28,6.0,0.00231,0.00262,42.0,41.9,27,464,0,64.0,13.60,0.00,0.00
15min,AgWx,evansfrm,411,23NOV2017:12:00:00,67.9,14.3,60.6,59.8,57.3,59.8,55.9,63,69,55,0.970,44.9,46.5,43.2,8.42,1.5,334,57,8.4,0.00217,0.00242,42.3,42.1,27,418,0,67.8,13.60,0.00,0.00
15min,AgWx,evansfrm,411,23NOV2017:12:15:00,69.5,14.3,62.2,62.1,61.5,62.2,59.8,53,59,49,0.964,44.1,46.2,42.7,2.521,4.1,180,39,10.3,0.00284,0.00340,42.7,42.1,27,489,0,70.6,13.60,0.00,0.00
15min,AgWx,evansfrm,411,23NOV2017:12:30:00,71.2,14.24,64.2,64.3,63.5,64.6,62.1,48,57,45,0.919,43.7,46.7,42.2,11.16,4.6,198,32,11.2,0.00289,0.00352,43.0,41.9,27,474,0,74.7,13.60,0.00,0.00
15min,AgWx,evansfrm,411,23NOV2017:12:45:00,71.8,14.02,64.1,64.0,64.5,65.2,63.8,45,48,42,0.922,42.7,45.0,40.9,9.27,8.5,200,15,13.3,0.00306,0.00409,43.3,42.1,27,434,0,74.4,13.60,0.00,0.00
15min,AgWx,evansfrm,411,23NOV2017:13:00:00,70.8,13.63,63.1,63.0,63.3,64.0,62.9,45,47,43,0.899,41.6,42.7,40.0,9.84,9.9,198,13,13.5,0.00241,0.00348,43.8,41.9,27,247,0,71.8,13.60,0.00,0.00
15min,AgWx,evansfrm,411,23NOV2017:13:15:00,69.3,13.52,63.3,63.2,63.1,63.3,63.0,45,47,43,0.849,41.6,42.9,40.2,9.89,9.0,194,14,14.5,0.00218,0.00316,44.1,42.3,27,210,0,71.1,13.60,0.00,0.00
15min,AgWx,evansfrm,411,23NOV2017:13:30:00,68.0,13.62,63.2,63.0,63.0,63.2,62.9,44,46,42,0.889,40.8,42.2,39.6,11.29,10.8,202,13,16.8,0.00238,0.00353,44.4,42.4,27,221,0,70.0,13.61,0.00,0.00
15min,AgWx,evansfrm,411,23NOV2017:13:45:00,67.1,13.91,63.6,63.5,63.2,63.6,62.9,44,46,42,0.869,41.0,42.2,40.0,11.79,9.9,200,15,14.6,0.00240,0.00348,44.7,42.4,27,250,0,70.5,13.61,0.00,0.00
15min,AgWx,evansfrm,411,23NOV2017:14:00:00,66.8,13.81,63.3,63.4,63.5,63.7,63.2,43,45,42,0.846,40.8,41.7,39.6,9.34,7.7,214,17,14.3,0.00223,0.00316,45.0,42.4,27,258,0,71.1,13.61,0.00,0.00
15min,AgWx,evansfrm,411,23NOV2017:14:15:00,66.5,13.59,62.4,61.8,62.8,63.7,61.8,48,54,42,0.988,42.8,45.2,40.3,2.718,5.5,242,31,11.8,0.00181,0.00247,45.3,42.8,27,231,0,70.7,13.61,0.00,0.00
15min,AgWx,evansfrm,411,23NOV2017:14:30:00,66.0,13.35,61.6,61.2,62.1,62.9,61.2,48,53,44,0.969,42.3,44.1,40.4,0.482,5.4,234,39,11.7,0.00145,0.00207,45.4,42.8,27,142,0,69.3,13.61,0.00,0.00
15min,AgWx,evansfrm,411,23NOV2017:14:45:00,65.0,13.27,61.0,60.7,60.9,61.3,60.4,52,53,48,0.939,43.0,44.2,41.2,4.647,3.5,351,93,13.6,0.00099,0.00138,45.7,43.0,27,91,0,67.5,13.61,0.00,0.00
15min,AgWx,evansfrm,411,23NOV2017:15:00:00,64.0,13.23,60.1,59.9,60.8,61.5,59.8,50,56,46,0.962,41.9,44.5,40.3,2.083,2.6,237,71,5.5,0.00082,0.00113,45.9,43.2,27,70,0,66.4,13.60,0.00,0.00
15min,AgWx,evansfrm,411,23NOV2017:15:15:00,63.0,13.15,60.7,60.8,60.4,61.1,59.8,50,56,46,0.889,41.7,44.2,39.9,1.732,2.3,73,56,7.2,0.00062,0.00089,46.1,43.2,27,46,0,65.3,13.61,0.00,0.00
15min,AgWx,evansfrm,411,23NOV2017:15:30:00,62.1,13.18,60.3,60.4,60.1,60.7,59.3,50,55,47,0.837,41.4,43.5,39.8,1.425,2.7,1.5,70,6.7,0.00062,0.00093,46.3,43.3,27,39,0,64.6,13.61,0.00,0.00
15min,AgWx,evansfrm,411,23NOV2017:15:45:00,61.5,13.17,60.6,60.5,60.7,61.1,59.8,47,52,45,0.862,40.1,42.6,39.3,2.346,2.5,45,61,5.1,0.00064,0.00095,46.4,43.5,27,39,0,64.7,13.61,0.00,0.00
15min,AgWx,evansfrm,411,23NOV2017:16:00:00,61.0,13.16,59.8,59.8,60.0,60.5,59.6,49,53,47,0.913,40.9,42.8,39.6,1.052,2.4,101,31,5.6,0.00054,0.00082,46.6,43.5,27,52,0,65.1,13.60,0.00,0.00
15min,AgWx,evansfrm,411,23NOV2017:16:15:00,60.5,13.14,59.1,58.8,59.4,60.2,58.4,51,56,47,0.883,41.3,43.0,39.9,4.757,4.2,117,14,6.9,0.00065,0.00107,46.7,43.7,27,34,0,64.0,13.61,0.00,0.00
15min,AgWx,evansfrm,411,23NOV2017:16:30:00,60.1,13.11,59.4,59.6,59.5,60.3,58.6,49,52,46,0.863,40.5,41.6,39.1,4.889,6.7,156,18,11.6,0.00093,0.00157,46.8,43.7,27,13,0,62.7,13.61,0.00,0.00
15min,AgWx,evansfrm,411,23NOV2017:16:45:00,59.7,13.11,58.9,58.7,58.6,59.4,58.1,52,54,48,0.843,40.9,41.5,39.6,4.494,5.5,141,8.0,6.8,0.00070,0.00121,46.9,43.7,27,8,0,61.9,13.61,0.00,0.00
15min,AgWx,evansfrm,411,23NOV2017:17:00:00,59.0,13.11,57.7,57.6,58.1,59.0,57.4,52,55,49,0.833,40.7,42.0,39.4,1.513,2.0,164,28,5.7,0.00030,0.00051,46.8,43.9,27,3,0,61.5,13.61,0.00,0.00
15min,AgWx,evansfrm,411,23NOV2017:17:15:00,58.5,13.1,57.6,57.8,58.4,59.0,57.8,50,54,48,0.809,39.8,41.5,39.1,0.548,1.3,269,73,3.8,0.00017,0.00027,46.9,44.1,27,1,0,61.8,13.61,0.00,0.00
15min,AgWx,evansfrm,411,23NOV2017:17:30:00,58.3,13.08,58.2,58.1,59.0,60.2,57.9,49,52,45,0.859,39.9,40.8,38.6,4.209,4.6,187,23,8.6,0.00044,0.00060,47.0,44.2,27,0,0,61.8,13.61,0.00,0.00
15min,AgWx,evansfrm,411,23NOV2017:17:45:00,57.9,13.08,56.9,56.7,57.6,58.1,56.7,53,56,52,0.877,40.7,41.6,39.9,2.368,1.5,51,72,4.6,0.00018,0.00028,47.0,44.2,27,0,0,60.9,13.61,0.00,0.00
15min,AgWx,evansfrm,411,23NOV2017:18:00:00,57.4,13.07,55.2,55.1,55.8,57.1,55.0,59,62,54,0.911,41.9,42.3,40.2,2.543,2.6,351,22,6.2,0.00023,0.00033,46.9,44.2,27,0,0,59.2,13.61,0.00,0.00
15min,AgWx,evansfrm,411,23NOV2017:18:15:00,56.7,13.07,54.5,54.5,54.5,55.1,53.9,64,67,62,0.948,42.5,43.2,42.0,3.464,3.0,333,28,5.2,0.00021,0.00031,47.1,44.2,27,0,0,58.0,13.61,0.00,0.00
15min,AgWx,evansfrm,411,23NOV2017:18:30:00,56.1,13.05,54.0,53.6,54.1,54.8,53.6,66,68,63,0.954,43.0,43.5,42.3,3.749,3.9,338,35,6.8,0.00024,0.00033,46.9,44.6,27,0,3,57.3,13.61,0.00,0.00
15min,AgWx,evansfrm,411,23NOV2017:18:45:00,54.9,13.05,53.2,52.9,52.7,53.7,52.0,72,76,68,0.967,44.1,44.7,43.4,7.432,3.3,40,66,7.4,0.00017,0.00024,47.0,44.4,27,0,100,54.0,13.61,0.00,0.00
15min,AgWx,evansfrm,411,23NOV2017:19:00:00,54.3,13.05,53.4,53.3,53.4,53.7,52.9,70,72,68,0.973,43.8,44.5,43.5,5.963,5.2,33,26,8.5,0.00025,0.00033,46.9,44.2,27,0,28,55.4,13.61,0.00,0.00
15min,AgWx,evansfrm,411,23NOV2017:19:15:00,54.1,13.04,53.1,53.0,53.2,53.3,53.0,70,71,69,0.961,43.5,44.0,43.2,0,1.7,339,29,6.2,0.00012,0.00018,46.9,44.6,27,0,0,56.5,13.61,0.00,0.00
15min,AgWx,evansfrm,411,23NOV2017:19:30:00,53.8,13.03,52.1,52.0,52.7,53.2,52.0,71,73,69,0.969,43.6,44.0,43.2,4.012,2.6,43,30,4.5,0.00015,0.00021,46.8,44.6,27,0,0,56.4,13.61,0.00,0.00
15min,AgWx,evansfrm,411,23NOV2017:19:45:00,53.5,13.03,51.3,51.0,51.9,52.7,51.0,74,77,70,0.981,43.7,44.2,43.2,0.833,3.7,284,43,6.5,0.00017,0.00024,46.9,44.6,27,0,0,55.3,13.61,0.00,0.00
15min,AgWx,evansfrm,411,23NOV2017:20:00:00,53.0,13.02,50.2,50.3,50.5,51.1,49.8,79,82,77,1.001,44.3,44.7,44.1,4.998,2.5,114,48,6.3,0.00010,0.00014,46.8,44.8,27,0,0,54.7,13.61,0.00,0.00
15min,AgWx,evansfrm,411,23NOV2017:20:15:00,52.4,13.01,50.4,50.1,50.4,50.8,49.9,80,82,78,0.991,44.4,44.7,44.1,3.288,4.3,218,31,7.0,0.00014,0.00019,46.8,44.8,27,0,0,53.9,13.61,0.00,0.00
15min,AgWx,evansfrm,411,23NOV2017:20:30:00,52.0,13.01,49.5,49.4,49.6,50.1,49.2,83,84,81,0.998,44.5,44.7,44.3,3.398,2.5,133,77,4.5,0.00008,0.00012,46.8,44.6,27,0,0,53.5,13.61,0.00,0.00
15min,AgWx,evansfrm,411,23NOV2017:20:45:00,51.5,13.01,50.4,50.5,49.8,50.5,49.1,82,84,79,0.991,44.5,44.8,44.2,3.88,3.5,100,30,4.8,0.00011,0.00015,46.8,44.8,27,0,0,53.6,13.61,0.00,0.00
15min,AgWx,evansfrm,411,23NOV2017:21:00:00,51.2,13,49.3,49.1,49.7,50.5,49.0,82,85,79,1.002,44.5,44.7,44.3,1.25,1.7,171,16,3.9,0.00006,0.00010,46.7,44.8,27,0,0,54.0,13.61,0.00,0.00
15min,AgWx,evansfrm,411,23NOV2017:21:15:00,50.9,13,49.9,49.9,49.3,50.0,48.8,84,86,81,0.993,44.7,44.9,44.3,4.713,3.0,189,24,5.3,0.00008,0.00012,46.8,44.6,27,0,0,53.2,13.61,0.00,0.00
15min,AgWx,evansfrm,411,23NOV2017:21:30:00,50.6,12.99,49.1,49.0,49.3,50.0,48.8,83,85,81,0.999,44.5,44.7,44.2,6.686,4.5,164,28,7.0,0.00011,0.00015,46.6,44.6,27,0,0,52.9,13.61,0.00,0.00
15min,AgWx,evansfrm,411,23NOV2017:21:45:00,50.5,12.94,49.7,49.6,49.3,49.6,49.0,83,84,81,0.987,44.4,44.6,44.2,7.147,7.3,154,14,9.5,0.00015,0.00019,46.6,44.6,27,0,0,52.4,13.61,0.00,0.00
15min,AgWx,evansfrm,411,23NOV2017:22:00:00,50.4,12.98,50.2,50.1,49.8,50.1,49.6,80,82,79,0.975,44.1,44.3,43.7,5.327,5.7,161,8.1,7.7,0.00015,0.00020,46.6,44.8,27,0,0,53.0,13.61,0.00,0.00
15min,AgWx,evansfrm,411,23NOV2017:22:15:00,50.4,12.97,50.7,50.3,50.9,51.7,49.9,75,79,73,0.952,43.4,43.9,43.1,4.713,6.7,181,7.9,9.5,0.00022,0.00028,46.6,44.8,27,0,0,53.6,13.61,0.00,0.00
15min,AgWx,evansfrm,411,23NOV2017:22:30:00,50.4,12.97,50.1,50.2,49.8,50.4,49.3,79,80,77,0.958,43.4,43.6,43.2,5.393,4.8,166,9.9,5.9,0.00015,0.00021,46.5,44.8,27,0,0,53.5,13.61,0.00,0.00
15min,AgWx,evansfrm,411,23NOV2017:22:45:00,50.3,12.97,51.3,51.5,50.6,51.5,50.0,75,77,72,0.947,43.1,43.4,42.8,6.357,5.8,147,21,8.7,0.00020,0.00026,46.4,44.8,27,0,0,53.2,13.61,0.00,0.00
15min,AgWx,evansfrm,411,23NOV2017:23:00:00,50.2,12.96,50.9,50.8,51.4,51.9,50.8,71,73,69,0.896,42.2,42.9,41.7,3.727,6.6,160,12,9.3,0.00026,0.00033,46.4,44.8,27,0,0,53.0,13.61,0.00,0.00
15min,AgWx,evansfrm,411,23NOV2017:23:15:00,49.8,12.96,50.9,50.8,50.6,51.1,49.9,71,73,69,0.893,41.4,41.8,41.0,4.823,3.3,158,16,5.4,0.00017,0.00024,46.3,44.8,27,0,0,52.7,13.61,0.00,0.00
15min,AgWx,evansfrm,411,23NOV2017:23:30:00,50.1,12.96,53.1,53.1,52.1,53.2,50.8,67,71,63,0.871,41.3,41.7,40.8,6.248,5.9,168,23,10.7,0.00028,0.00037,46.4,44.8,27,0,0,54.5,13.61,0.00,0.00
15min,AgWx,evansfrm,411,23NOV2017:23:45:00,50.2,12.95,51.2,51.1,51.9,53.1,50.8,66,69,63,0.864,41.0,41.2,40.8,7.168,8.1,149,12,11.8,0.00034,0.00042,46.2,44.8,27,0,0,53.7,13.61,0.00,0.00
15min,AgWx,drainfrm,410,23NOV2017:00:00:00,37.4,12.59,35.4,35.9,35.5,36.0,35.1,98,99,98,0.704,35.0,35.6,34.6,2.148,1.8,50,61,3.3,-0.00016,-0.00021,44.1,43.3,30,0,100,38.1,13.12,0.00,0.00
15min,AgWx,drainfrm,410,23NOV2017:00:15:00,37.2,12.59,36.6,37.1,36.3,37.2,35.5,99,99,99,0.742,36.0,36.9,35.1,2.959,2.2,22,25,3.6,-0.00015,-0.00020,43.9,43.3,30,0,100,39.4,13.12,0.00,0.00
15min,AgWx,drainfrm,410,23NOV2017:00:30:00,37.2,12.59,37.1,37.6,37.3,37.6,37.2,99,99,99,0.759,37.1,37.5,36.9,1.6,1.2,20,27,3.0,-0.00018,-0.00026,43.9,43.3,30,0,100,39.9,13.12,0.00,0.00
15min,AgWx,drainfrm,410,23NOV2017:00:45:00,37.0,12.58,35.3,36.0,36.9,37.7,35.6,99,99,99,0.708,36.6,37.5,35.2,0,1.6,119,47,2.7,-0.00017,-0.00023,43.8,43.5,30,0,100,39.0,13.12,0.00,0.00
15min,AgWx,drainfrm,410,23NOV2017:01:00:00,36.7,12.58,35.6,36.5,36.5,37.8,35.9,99,99,99,0.723,36.2,37.6,35.7,2.981,2.3,232,21,5.1,-0.00015,-0.00019,43.8,43.7,30,0,100,38.8,13.12,0.00,0.00
15min,AgWx,drainfrm,410,23NOV2017:01:15:00,36.3,12.58,33.8,34.5,34.7,36.4,34.2,99,99,99,0.666,34.4,36.2,33.8,1.14,1.8,271,31,4.2,-0.00015,-0.00020,43.7,43.7,30,0,100,37.0,13.12,0.00,0.00
15min,AgWx,drainfrm,410,23NOV2017:01:30:00,35.8,12.57,34.2,34.9,34.7,35.0,34.5,99,99,99,0.680,34.5,34.7,34.1,1.425,0.7,292,43,2.4,-0.00019,-0.00028,43.6,43.7,30,0,100,37.0,13.12,0.00,0.00
15min,AgWx,drainfrm,410,23NOV2017:01:45:00,35.4,12.56,34.8,35.7,35.2,36.4,33.6,99,100,99,0.706,35.0,36.3,33.3,1.71,1.6,138,41,2.5,-0.00016,-0.00022,43.6,43.3,30,0,100,37.1,13.12,0.00,0.00
15min,AgWx,drainfrm,410,23NOV2017:02:00:00,35.1,12.56,33.5,34.3,34.7,35.8,33.9,99,100,99,0.665,34.6,35.7,33.7,0.811,1.6,330,51,3.4,-0.00016,-0.00022,43.5,43.5,30,0,100,38.0,13.12,0.00,0.00
15min,AgWx,drainfrm,410,23NOV2017:02:15:00,34.8,12.56,33.1,33.9,34.2,34.6,33.9,99,100,99,0.654,34.1,34.5,33.7,4.209,1.8,48,22,4.2,-0.00016,-0.00021,43.5,43.5,30,0,100,37.2,13.12,0.00,0.00
15min,AgWx,drainfrm,410,23NOV2017:02:30:00,34.6,12.56,34.3,34.7,34.0,34.7,33.4,100,100,99,0.678,33.9,34.6,33.2,2.389,3.8,63,9.6,5.4,-0.00012,-0.00014,43.4,43.3,30,0,100,36.0,13.12,0.00,0.00
15min,AgWx,drainfrm,410,23NOV2017:02:45:00,34.7,12.55,35.8,36.3,35.4,36.3,34.6,100,100,100,0.722,35.3,36.2,34.5,2.039,2.9,80,15,4.7,-0.00014,-0.00017,43.4,43.3,30,0,100,37.4,13.12,0.00,0.00
15min,AgWx,drainfrm,410,23NOV2017:03:00:00,34.9,12.55,35.2,35.9,36.7,37.0,35.8,100,100,100,0.712,36.6,36.9,35.7,0.899,1.8,73,30,3.2,-0.00016,-0.00022,43.3,43.5,30,0,100,38.9,13.12,0.00,0.00
15min,AgWx,drainfrm,410,23NOV2017:03:15:00,34.6,12.55,33.4,34.2,34.8,35.9,34.1,100,100,100,0.663,34.7,35.8,34.0,2.565,2.0,314,19,3.2,-0.00015,-0.00020,43.3,43.3,30,0,100,38.0,13.12,0.00,0.00
15min,AgWx,drainfrm,410,23NOV2017:03:30:00,34.3,12.55,33.9,34.5,34.0,34.6,32.3,100,100,99,0.671,33.9,34.5,32.1,1.644,1.9,228,52,3.8,-0.00015,-0.00020,43.3,43.3,30,0,100,36.6,13.12,0.00,0.00
15min,AgWx,drainfrm,410,23NOV2017:03:45:00,33.9,12.54,31.3,32.0,32.5,34.4,31.6,99,100,99,0.606,32.4,34.3,31.4,1.271,2.7,272,11,3.6,-0.00013,-0.00016,43.1,43.3,30,0,100,35.3,13.12,0.00,0.00
15min,AgWx,drainfrm,410,23NOV2017:04:00:00,33.4,12.54,33.3,34.0,33.0,34.1,32.0,100,100,99,0.659,32.9,34.0,31.9,1.863,1.4,226,30,3.4,-0.00016,-0.00022,43.0,43.7,30,0,100,35.2,13.12,0.00,0.00
15min,AgWx,drainfrm,410,23NOV2017:04:15:00,33.2,12.54,31.9,32.4,32.5,33.9,32.0,100,100,100,0.618,32.4,33.8,31.9,3.31,2.1,116,30,3.5,-0.00014,-0.00019,43.0,43.3,30,0,100,34.9,13.12,0.00,0.00
15min,AgWx,drainfrm,410,23NOV2017:04:30:00,33.2,12.53,32.8,33.3,32.8,33.7,32.0,100,100,100,0.640,32.7,33.6,31.9,2.85,2.6,146,26,4.3,-0.00013,-0.00017,42.9,43.5,30,0,100,35.1,13.12,0.00,0.00
15min,AgWx,drainfrm,410,23NOV2017:04:45:00,33.2,12.53,33.5,34.1,34.1,34.4,33.4,100,100,100,0.663,34.1,34.3,33.3,0.921,1.2,179,12,2.9,-0.00017,-0.00024,42.8,43.3,30,0,100,36.1,13.12,0.00,0.00
15min,AgWx,drainfrm,410,23NOV2017:05:00:00,33.1,12.53,32.3,32.9,34.0,34.3,32.9,100,100,100,0.631,33.9,34.2,32.8,2.74,1.5,130,58,4.4,-0.00016,-0.00022,42.9,43.3,30,0,100,36.4,13.12,0.00,0.00
15min,AgWx,drainfrm,410,23NOV2017:05:15:00,33.0,12.53,33.1,33.5,32.9,33.5,32.6,100,100,100,0.647,32.8,33.4,32.5,3.683,2.1,99,24,4.0,-0.00015,-0.00019,42.8,43.2,30,0,100,35.5,13.12,0.00,0.00
15min,AgWx,drainfrm,410,23NOV2017:05:30:00,32.9,12.52,31.6,32.0,33.3,33.8,31.7,100,100,100,0.609,33.2,33.7,31.6,0.066,0.9,83,38,3.4,-0.00018,-0.00025,42.7,43.2,30,0,100,36.2,13.12,0.00,0.00
15min,AgWx,drainfrm,410,23NOV2017:05:45:00,32.6,12.52,30.7,31.2,31.8,32.7,30.7,100,100,100,0.589,31.7,32.6,30.7,3.223,2.6,310,49,6.1,-0.00013,-0.00016,42.7,43.3,30,0,100,34.8,13.12,0.00,0.00
15min,AgWx,drainfrm,410,23NOV2017:06:00:00,32.4,12.52,32.0,32.6,32.0,32.6,31.1,100,100,100,0.623,31.9,32.6,31.0,1.491,2.4,332,35,4.3,-0.00014,-0.00017,42.7,43.2,30,0,100,34.9,13.12,0.00,0.00
15min,AgWx,drainfrm,410,23NOV2017:06:15:00,32.4,12.51,31.8,32.3,32.5,32.8,32.3,100,100,100,0.616,32.4,32.7,32.2,0.438,1.0,35,57,3.2,-0.00017,-0.00024,42.5,43.3,30,0,100,35.3,13.12,0.00,0.00
15min,AgWx,drainfrm,410,23NOV2017:06:30:00,32.1,12.51,31.2,31.7,32.1,32.6,31.6,100,100,100,0.602,32.0,32.5,31.5,0.811,1.5,86,15,3.2,-0.00016,-0.00021,42.5,43.2,30,0,100,34.7,13.12,0.00,0.00
15min,AgWx,drainfrm,410,23NOV2017:06:45:00,32.0,12.51,31.6,32.1,31.6,32.3,31.1,100,100,100,0.611,31.5,32.2,31.0,2.565,2.4,107,52,4.5,-0.00014,-0.00017,42.5,43.0,30,0,100,34.0,13.12,0.00,0.00
15min,AgWx,drainfrm,410,23NOV2017:07:00:00,31.8,12.51,31.4,32.0,31.4,32.0,30.7,100,100,100,0.609,31.3,32.0,30.6,2.455,2.3,232,33,4.9,-0.00014,-0.00017,42.4,43.0,30,0,100,34.7,13.12,0.00,0.00
15min,AgWx,drainfrm,410,23NOV2017:07:15:00,31.9,12.5,31.9,32.4,32.1,32.5,31.6,100,100,100,0.618,32.0,32.5,31.5,2.696,2.1,237,17,4.4,-0.00014,-0.00018,42.4,43.2,30,0,100,35.2,13.12,0.00,0.00
15min,AgWx,drainfrm,410,23NOV2017:07:30:00,32.0,12.5,32.3,32.7,32.6,32.9,32.3,100,100,100,0.626,32.5,32.8,32.2,0.965,1.7,214,25,3.1,-0.00015,-0.00020,42.4,43.2,30,2,100,35.4,13.12,0.00,0.00